Find Starlink 4300

NORAD ID: 53173 Int'l Des: 2022-083 Owner: SPXS Country: US Constellation: starlink operational
LEOCIRCULAR

Aktuelle Ansicht

3D-Globus wird geladen...

Über Starlink 4300

Beschreibung wird geladen...

Nächste Überflüge

Passes for default location (London). Set your location on the main map for personalized predictions.

Höhenverlauf

Loading altitude history...

Zweizeiliger Elementsatz

1 53173U 22083AT 26146.43084795 .00001269 00000-0 97804-4 0 9993
2 53173 53.2086 150.1162 0001071 83.4269 276.6845 15.08832088213436
Epoch: 26. Mai 2026 • Age: 13 hours

Aktueller Status

Höhe 542.0 km
Geschwindigkeit 7.60 km/s
Subsatellitenpunkt 35.98°N, 53.15°W
Startdatum 17. Juli 2022
Alter 3.8 years
Typ internet

Technische Details

Klassifizierung Payload
Masse 297.00 kg
Trockenmasse 275.00 kg
Gesamtmasse 297.00 kg
Länge 0.20 m
Durchmesser 2.80 m
Spannweite 9.00 m
Form Box + pan
Hersteller SPXS
Bus-Typ Starlink
Phasenstatus In Orbit
Besitzer/Staat SPXS/US

Most Searched